Hourly Data Report for October 08, 2015

All times are specified in Local Standard Time (LST). Add 1 hour to adjust for Daylight Saving Time where and when it is observed.

CORAL HARBOUR A
NUNAVUT

64°11'36.000" N
83°21'34.000" W
62.20 m
2301002
71915
YZS

Download Data

Hourly Data (October 2015)
Hourly Data Report for October 8, 2015
Temp Definition
°C
Dew Point Temp Definition
°C
Rel Hum Definition
%
Wind Dir Definition
10's deg

Wind Spd Definition
km/h
Visibility Definition
km
Stn Press Definition
kPa
Hmdx Definition


Wind Chill Definition


Weather Definition


TIME
00:00 Legend Double Dagger -9.1 -11.3 84 34 18 24.1 100.12   -16 LegendNANA
01:00 Legend Double Dagger -9.6 -11.2 88 35 22 24.1 100.13   -18 Clear
02:00 Legend Double Dagger -9.3 -11.2 86 34 17 24.1 100.12   -16 LegendNANA
03:00 Legend Double Dagger -9.2 -11.3 85 34 20 24.1 100.12   -17 LegendNANA
04:00 Legend Double Dagger -9.2 -11.3 85 1 15 24.1 100.12   -16 Clear
05:00 Legend Double Dagger -8.9 -11.1 84 36 19 24.1 100.12   -16 LegendNANA
06:00 Legend Double Dagger -9.3 -11.4 85 35 17 24.1 100.12   -16 LegendNANA
07:00 Legend Double Dagger -9.1 -11.0 86 36 15 24.1 100.12   -16 Mainly Clear
08:00 Legend Double Dagger -8.1 -10.2 85 35 12 24.1 100.12   -14 LegendNANA
09:00 Legend Double Dagger -7.9 -10.3 83 34 14 24.1 100.09   -14 LegendNANA
10:00 Legend Double Dagger -7.5 -9.9 83 35 12 24.1 100.08   -13 Cloudy
11:00 Legend Double Dagger -7.0 -10.4 77 35 8 24.1 100.09   -11 LegendNANA
12:00 Legend Double Dagger -6.5 -10.6 73 36 2 24.1 100.06   -7 LegendNANA
13:00 Legend Double Dagger -6.1 -10.9 69 10 3 24.1 100.05   -8 Cloudy
14:00 Legend Double Dagger -5.8 -11.0 67 11 7 24.1 100.03   -9 LegendNANA
15:00 Legend Double Dagger -5.8 -10.8 68 15 8 24.1 100.01   -10 LegendNANA
16:00 Legend Double Dagger -5.7 -10.0 72 17 5 24.1 99.99   -8 Cloudy
17:00 Legend Double Dagger -5.3 -9.1 75 14 4 24.1 99.97   -7 LegendNANA
18:00 Legend Double Dagger -5.3 -9.4 73 16 3 24.1 99.96   -7 LegendNANA
19:00 Legend Double Dagger -5.7 -9.5 75 14 8 24.1 99.95   -9 Cloudy
20:00 Legend Double Dagger -6.1 -8.4 84 10 4 19.3 99.92   -8 Snow
21:00 Legend Double Dagger -6.2 -7.9 88 36 3 24.1 99.87   -8 Snow
22:00 Legend Double Dagger -6.3 -8.1 87 4 4 24.1 99.83   -8 Snow
23:00 Legend Double Dagger -6.4 -7.9 89 6 7 24.1 99.80   -10 Snow

Notes on Data Quality.

Legend

  • E = Estimated
  • M = Missing
  • NA = Not Available
  • ‡ = Partner data that is not subject to review by the National Climate Archives
Date modified: